User: anonymous   Login
Location: Alta
(39.2070°N, 120.8111°W)
Time: 12:28:17
(UTC+00:00)
Language:

AIST 2D - Orbit

View from above orbital plane
View from above orbital plane
View from above satellite
View from above satellite

Ground track
Ground track

The orbit data is extracted from the following two-line orbital elements,

1 41465U 16026B   23092.22720888  .00033419  00000-0  51837-3 0  9995
2 41465  97.0104 325.0261 0008705 145.4704   2.9417 15.53886520388158
Epoch (UTC): 02 April 2023 05:27:10
Eccentricity: 0.0008705
inclination: 97.0104°
perigee height: 399 km
apogee height: 411 km
right ascension of ascending node: 325.0261°
argument of perigee: 145.4704°
revolutions per day: 15.53886520
mean anomaly at epoch: 2.9417°
orbit number at epoch: 38815

The dashed part of the orbit path shows where the satellite is in the earth's shadow,  

DLR